Data supplied by UK-AIR on 3/5/2024
All Data GMT hour ending 
Status: R =Ratified P=Provisional,P*=As supplied
,,Newcastle Cradlewell Roadside,,,,,,,,,,,,,,,,,,,,,,,
Date,time,"PM<sub>10</sub> particulate matter (Hourly measured)",status,unit,"Nitric oxide",status,unit,"Nitrogen dioxide",status,unit,"Nitrogen oxides as nitrogen dioxide",status,unit
 
01-01-2024,01:00,11.594,P,ugm-3 (Ref.eq),4.84512,P,ugm-3,9.55924,P,ugm-3,16.98831,P,ugm-3
01-01-2024,02:00,6.763,P,ugm-3 (Ref.eq),7.69785,P,ugm-3,15.23942,P,ugm-3,27.04262,P,ugm-3
01-01-2024,03:00,5.797,P,ugm-3 (Ref.eq),7.53936,P,ugm-3,14.44232,P,ugm-3,26.00251,P,ugm-3
01-01-2024,04:00,3.865,P,ugm-3 (Ref.eq),5.73943,P,ugm-3,9.40143,P,ugm-3,18.20176,P,ugm-3
01-01-2024,05:00,3.865,P,ugm-3 (Ref.eq),3.83760,P,ugm-3,8.57316,P,ugm-3,14.45740,P,ugm-3
01-01-2024,06:00,4.831,P,ugm-3 (Ref.eq),3.02254,P,ugm-3,7.48268,P,ugm-3,12.11717,P,ugm-3
01-01-2024,07:00,2.899,P,ugm-3 (Ref.eq),1.90182,P,ugm-3,6.13279,P,ugm-3,9.04888,P,ugm-3
01-01-2024,08:00,-0.966,P,ugm-3 (Ref.eq),2.00370,P,ugm-3,4.83246,P,ugm-3,7.90476,P,ugm-3
01-01-2024,09:00,-0.966,P,ugm-3 (Ref.eq),1.49429,P,ugm-3,3.94940,P,ugm-3,6.24060,P,ugm-3
01-01-2024,10:00,2.899,P,ugm-3 (Ref.eq),1.90182,P,ugm-3,4.88467,P,ugm-3,7.80076,P,ugm-3
01-01-2024,11:00,4.831,P,ugm-3 (Ref.eq),3.66780,P,ugm-3,7.74142,P,ugm-3,13.36529,P,ugm-3
01-01-2024,12:00,3.865,P,ugm-3 (Ref.eq),5.06020,P,ugm-3,8.25868,P,ugm-3,16.01755,P,ugm-3
01-01-2024,13:00,3.865,P,ugm-3 (Ref.eq),5.77339,P,ugm-3,9.08933,P,ugm-3,17.94174,P,ugm-3
01-01-2024,14:00,3.865,P,ugm-3 (Ref.eq),9.13553,P,ugm-3,14.17911,P,ugm-3,28.18673,P,ugm-3
01-01-2024,15:00,9.662,P,ugm-3 (Ref.eq),36.16856,P,ugm-3,48.03233,P,ugm-3,103.49001,P,ugm-3
01-01-2024,16:00,12.561,P,ugm-3 (Ref.eq),57.22444,P,ugm-3,65.30789,P,ugm-3,153.05080,P,ugm-3
01-01-2024,17:00,18.358,P,ugm-3 (Ref.eq),95.26086,P,ugm-3,85.25377,P,ugm-3,231.31837,P,ugm-3
01-01-2024,18:00,18.358,P,ugm-3 (Ref.eq),81.67642,P,ugm-3,75.34797,P,ugm-3,200.58340,P,ugm-3
01-01-2024,19:00,14.493,P,ugm-3 (Ref.eq),35.65915,P,ugm-3,56.09412,P,ugm-3,110.77072,P,ugm-3
01-01-2024,20:00,17.392,P,ugm-3 (Ref.eq),28.86693,P,ugm-3,45.08264,P,ugm-3,89.34464,P,ugm-3
01-01-2024,21:00,12.561,P,ugm-3 (Ref.eq),13.92405,P,ugm-3,33.04735,P,ugm-3,54.39726,P,ugm-3
01-01-2024,22:00,14.493,P,ugm-3 (Ref.eq),8.08274,P,ugm-3,20.00577,P,ugm-3,32.39914,P,ugm-3
01-01-2024,23:00,7.730,P,ugm-3 (Ref.eq),5.16209,P,ugm-3,12.26286,P,ugm-3,20.17795,P,ugm-3
01-01-2024,24:00,5.797,P,ugm-3 (Ref.eq),3.15838,P,ugm-3,6.80634,P,ugm-3,11.64913,P,ugm-3
02-01-2024,01:00,5.797,P,ugm-3 (Ref.eq),2.76207,P,ugm-3,5.81850,P,ugm-3,10.05362,P,ugm-3
02-01-2024,02:00,4.831,P,ugm-3 (Ref.eq),1.63007,P,ugm-3,4.50326,P,ugm-3,7.14153,P,ugm-3
02-01-2024,03:00,1.932,P,ugm-3 (Ref.eq),2.98847,P,ugm-3,8.62611,P,ugm-3,13.20837,P,ugm-3
02-01-2024,04:00,-0.966,P,ugm-3 (Ref.eq),3.63371,P,ugm-3,7.58476,P,ugm-3,13.15637,P,ugm-3
02-01-2024,05:00,0.000,P,ugm-3 (Ref.eq),5.09398,P,ugm-3,20.99814,P,ugm-3,28.80880,P,ugm-3
02-01-2024,06:00,1.932,P,ugm-3 (Ref.eq),23.83984,P,ugm-3,48.83248,P,ugm-3,85.38638,P,ugm-3
02-01-2024,07:00,6.763,P,ugm-3 (Ref.eq),89.51825,P,ugm-3,71.89043,P,ugm-3,209.14984,P,ugm-3
02-01-2024,08:00,10.628,P,ugm-3 (Ref.eq),159.37373,P,ugm-3,101.38800,P,ugm-3,345.75765,P,ugm-3
02-01-2024,09:00,7.730,P,ugm-3 (Ref.eq),197.13713,P,ugm-3,105.52267,P,ugm-3,407.79538,P,ugm-3
02-01-2024,10:00,13.527,P,ugm-3 (Ref.eq),157.23426,P,ugm-3,93.38416,P,ugm-3,334.47333,P,ugm-3
02-01-2024,11:00,19.324,P,ugm-3 (Ref.eq),222.70892,P,ugm-3,102.24614,P,ugm-3,443.72838,P,ugm-3
02-01-2024,12:00,20.290,P,ugm-3 (Ref.eq),201.58587,P,ugm-3,96.82930,P,ugm-3,405.92333,P,ugm-3
02-01-2024,13:00,21.256,P,ugm-3 (Ref.eq),130.77951,P,ugm-3,92.13838,P,ugm-3,292.66417,P,ugm-3
02-01-2024,14:00,18.358,P,ugm-3 (Ref.eq),122.01786,P,ugm-3,91.89634,P,ugm-3,278.98779,P,ugm-3
02-01-2024,15:00,20.290,P,ugm-3 (Ref.eq),162.56596,P,ugm-3,113.91380,P,ugm-3,363.17814,P,ugm-3
02-01-2024,16:00,16.425,P,ugm-3 (Ref.eq),141.34104,P,ugm-3,101.11297,P,ugm-3,317.83287,P,ugm-3
02-01-2024,17:00,17.392,P,ugm-3 (Ref.eq),201.55191,P,ugm-3,116.90193,P,ugm-3,425.94389,P,ugm-3
02-01-2024,18:00,17.392,P,ugm-3 (Ref.eq),176.62536,P,ugm-3,111.49290,P,ugm-3,382.31467,P,ugm-3
02-01-2024,19:00,22.223,P,ugm-3 (Ref.eq),160.12085,P,ugm-3,102.16649,P,ugm-3,347.68170,P,ugm-3
02-01-2024,20:00,19.324,P,ugm-3 (Ref.eq),112.30534,P,ugm-3,95.45236,P,ugm-3,267.65147,P,ugm-3
02-01-2024,21:00,14.493,P,ugm-3 (Ref.eq),88.26174,P,ugm-3,82.34530,P,ugm-3,217.67807,P,ugm-3
02-01-2024,22:00,14.493,P,ugm-3 (Ref.eq),84.62803,P,ugm-3,78.40064,P,ugm-3,208.16181,P,ugm-3
02-01-2024,23:00,7.730,P,ugm-3 (Ref.eq),39.35951,P,ugm-3,70.22524,P,ugm-3,130.57564,P,ugm-3
02-01-2024,24:00,3.865,P,ugm-3 (Ref.eq),11.51240,P,ugm-3,36.22140,P,ugm-3,53.87350,P,ugm-3
03-01-2024,01:00,-0.966,P,ugm-3 (Ref.eq),3.66754,P,ugm-3,13.65040,P,ugm-3,19.27388,P,ugm-3
03-01-2024,02:00,-2.899,P,ugm-3 (Ref.eq),4.21088,P,ugm-3,19.82119,P,ugm-3,25.16697,P,ugm-3
03-01-2024,03:00,-0.966,P,ugm-3 (Ref.eq),2.54690,P,ugm-3,14.86604,P,ugm-3,18.77123,P,ugm-3
03-01-2024,04:00,0.966,P,ugm-3 (Ref.eq),9.27072,P,ugm-3,23.63955,P,ugm-3,37.85445,P,ugm-3
03-01-2024,05:00,1.932,P,ugm-3 (Ref.eq),8.42175,P,ugm-3,30.24506,P,ugm-3,43.15823,P,ugm-3
03-01-2024,06:00,3.865,P,ugm-3 (Ref.eq),21.66564,P,ugm-3,46.18057,P,ugm-3,79.40075,P,ugm-3
03-01-2024,07:00,1.932,P,ugm-3 (Ref.eq),45.64046,P,ugm-3,58.60967,P,ugm-3,128.59074,P,ugm-3
03-01-2024,08:00,7.730,P,ugm-3 (Ref.eq),142.28686,P,ugm-3,99.12087,P,ugm-3,317.29102,P,ugm-3
03-01-2024,09:00,,,,,,,,,,,,
03-01-2024,10:00,10.628,P,ugm-3 (Ref.eq),141.13227,P,ugm-3,89.00105,P,ugm-3,305.40084,P,ugm-3
03-01-2024,11:00,14.493,P,ugm-3 (Ref.eq),142.42270,P,ugm-3,95.89672,P,ugm-3,314.27514,P,ugm-3
03-01-2024,12:00,14.493,P,ugm-3 (Ref.eq),118.37995,P,ugm-3,76.55205,P,ugm-3,258.06544,P,ugm-3
03-01-2024,13:00,17.392,P,ugm-3 (Ref.eq),169.45380,P,ugm-3,90.74411,P,ugm-3,350.56966,P,ugm-3
03-01-2024,14:00,2.899,P,ugm-3 (Ref.eq),15.41724,P,ugm-3,51.91347,P,ugm-3,75.55291,P,ugm-3
03-01-2024,15:00,9.662,P,ugm-3 (Ref.eq),37.08288,P,ugm-3,57.17172,P,ugm-3,114.03133,P,ugm-3
03-01-2024,16:00,12.561,P,ugm-3 (Ref.eq),61.26146,P,ugm-3,68.35244,P,ugm-3,162.28536,P,ugm-3
03-01-2024,17:00,9.662,P,ugm-3 (Ref.eq),23.32961,P,ugm-3,51.84484,P,ugm-3,87.61641,P,ugm-3
03-01-2024,18:00,6.763,P,ugm-3 (Ref.eq),42.78793,P,ugm-3,68.07928,P,ugm-3,133.68653,P,ugm-3
03-01-2024,19:00,5.797,P,ugm-3 (Ref.eq),62.68772,P,ugm-3,86.80869,P,ugm-3,182.92852,P,ugm-3
03-01-2024,20:00,11.594,P,ugm-3 (Ref.eq),94.60888,P,ugm-3,85.18166,P,ugm-3,230.24658,P,ugm-3
03-01-2024,21:00,16.425,P,ugm-3 (Ref.eq),80.31227,P,ugm-3,83.28778,P,ugm-3,206.43155,P,ugm-3
03-01-2024,22:00,16.425,P,ugm-3 (Ref.eq),95.72951,P,ugm-3,79.35554,P,ugm-3,226.13875,P,ugm-3
03-01-2024,23:00,5.797,P,ugm-3 (Ref.eq),32.90596,P,ugm-3,49.17282,P,ugm-3,99.62792,P,ugm-3
03-01-2024,24:00,3.865,P,ugm-3 (Ref.eq),24.21254,P,ugm-3,42.69136,P,ugm-3,79.81673,P,ugm-3
04-01-2024,01:00,3.865,P,ugm-3 (Ref.eq),9.51324,P,ugm-3,23.65407,P,ugm-3,38.24083,P,ugm-3
04-01-2024,02:00,2.899,P,ugm-3 (Ref.eq),5.96909,P,ugm-3,24.98616,P,ugm-3,34.13863,P,ugm-3
04-01-2024,03:00,2.899,P,ugm-3 (Ref.eq),7.69453,P,ugm-3,24.60020,P,ugm-3,36.39832,P,ugm-3
04-01-2024,04:00,4.831,P,ugm-3 (Ref.eq),4.72164,P,ugm-3,25.45616,P,ugm-3,32.69591,P,ugm-3
04-01-2024,05:00,5.797,P,ugm-3 (Ref.eq),14.47971,P,ugm-3,32.29128,P,ugm-3,54.49318,P,ugm-3
04-01-2024,06:00,4.831,P,ugm-3 (Ref.eq),35.60469,P,ugm-3,47.45777,P,ugm-3,102.05087,P,ugm-3
04-01-2024,07:00,4.831,P,ugm-3 (Ref.eq),65.89316,P,ugm-3,56.44792,P,ugm-3,157.48269,P,ugm-3
04-01-2024,08:00,13.527,P,ugm-3 (Ref.eq),143.64289,P,ugm-3,83.13948,P,ugm-3,303.38885,P,ugm-3
04-01-2024,09:00,10.628,P,ugm-3 (Ref.eq),135.17891,P,ugm-3,88.92118,P,ugm-3,296.19262,P,ugm-3
04-01-2024,10:00,9.662,P,ugm-3 (Ref.eq),121.11890,P,ugm-3,74.60270,P,ugm-3,260.31576,P,ugm-3
04-01-2024,11:00,7.730,P,ugm-3 (Ref.eq),136.47299,P,ugm-3,81.56585,P,ugm-3,290.82152,P,ugm-3
04-01-2024,12:00,10.628,P,ugm-3 (Ref.eq),127.34448,P,ugm-3,76.47706,P,ugm-3,271.73587,P,ugm-3
04-01-2024,13:00,11.594,P,ugm-3 (Ref.eq),80.09307,P,ugm-3,65.70226,P,ugm-3,188.50991,P,ugm-3
04-01-2024,14:00,9.662,P,ugm-3 (Ref.eq),87.43785,P,ugm-3,76.55057,P,ugm-3,210.62007,P,ugm-3
04-01-2024,15:00,14.493,P,ugm-3 (Ref.eq),116.29234,P,ugm-3,82.21192,P,ugm-3,260.52435,P,ugm-3
04-01-2024,16:00,11.594,P,ugm-3 (Ref.eq),98.00034,P,ugm-3,73.07875,P,ugm-3,223.34384,P,ugm-3
04-01-2024,17:00,19.324,P,ugm-3 (Ref.eq),136.29811,P,ugm-3,81.31253,P,ugm-3,290.30005,P,ugm-3
04-01-2024,18:00,14.493,P,ugm-3 (Ref.eq),117.58642,P,ugm-3,75.01304,P,ugm-3,255.30969,P,ugm-3
04-01-2024,19:00,20.290,P,ugm-3 (Ref.eq),156.93345,P,ugm-3,77.93557,P,ugm-3,318.56350,P,ugm-3
04-01-2024,20:00,16.425,P,ugm-3 (Ref.eq),75.68620,P,ugm-3,61.24784,P,ugm-3,177.29840,P,ugm-3
04-01-2024,21:00,23.189,P,ugm-3 (Ref.eq),40.25638,P,ugm-3,48.14726,P,ugm-3,109.87286,P,ugm-3
04-01-2024,22:00,11.594,P,ugm-3 (Ref.eq),45.53763,P,ugm-3,45.21198,P,ugm-3,115.03537,P,ugm-3
04-01-2024,23:00,8.696,P,ugm-3 (Ref.eq),15.31911,P,ugm-3,37.62683,P,ugm-3,61.11580,P,ugm-3
04-01-2024,24:00,8.696,P,ugm-3 (Ref.eq),15.31911,P,ugm-3,33.71583,P,ugm-3,57.20481,P,ugm-3
05-01-2024,01:00,6.763,P,ugm-3 (Ref.eq),2.47381,P,ugm-3,19.70490,P,ugm-3,23.49802,P,ugm-3
05-01-2024,02:00,6.763,P,ugm-3 (Ref.eq),4.48086,P,ugm-3,18.40562,P,ugm-3,23.91638,P,ugm-3
05-01-2024,03:00,5.797,P,ugm-3 (Ref.eq),0.87517,P,ugm-3,12.72553,P,ugm-3,14.06744,P,ugm-3
05-01-2024,04:00,4.831,P,ugm-3 (Ref.eq),3.67571,P,ugm-3,13.87014,P,ugm-3,19.50615,P,ugm-3
05-01-2024,05:00,5.797,P,ugm-3 (Ref.eq),4.69090,P,ugm-3,14.61452,P,ugm-3,21.80714,P,ugm-3
05-01-2024,06:00,1.932,P,ugm-3 (Ref.eq),3.46567,P,ugm-3,14.61056,P,ugm-3,19.92451,P,ugm-3
05-01-2024,07:00,0.000,P,ugm-3 (Ref.eq),22.08926,P,ugm-3,29.72136,P,ugm-3,63.59109,P,ugm-3
05-01-2024,08:00,1.932,P,ugm-3 (Ref.eq),14.31776,P,ugm-3,29.50498,P,ugm-3,51.45858,P,ugm-3
05-01-2024,09:00,4.831,P,ugm-3 (Ref.eq),32.38124,P,ugm-3,44.42870,P,ugm-3,94.07925,P,ugm-3
05-01-2024,10:00,10.628,P,ugm-3 (Ref.eq),38.36740,P,ugm-3,44.97699,P,ugm-3,103.80618,P,ugm-3
05-01-2024,11:00,11.594,P,ugm-3 (Ref.eq),69.48840,P,ugm-3,52.84869,P,ugm-3,159.39608,P,ugm-3
05-01-2024,12:00,14.493,P,ugm-3 (Ref.eq),104.39013,P,ugm-3,57.06746,P,ugm-3,217.13010,P,ugm-3
05-01-2024,13:00,16.425,P,ugm-3 (Ref.eq),142.72252,P,ugm-3,71.60996,P,ugm-3,290.44811,P,ugm-3
05-01-2024,14:00,21.256,P,ugm-3 (Ref.eq),135.51113,P,ugm-3,77.85610,P,ugm-3,285.63694,P,ugm-3
05-01-2024,15:00,37.682,P,ugm-3 (Ref.eq),173.42344,P,ugm-3,86.81958,P,ugm-3,352.73182,P,ugm-3
05-01-2024,16:00,23.189,P,ugm-3 (Ref.eq),154.58981,P,ugm-3,91.11862,P,ugm-3,328.15302,P,ugm-3
05-01-2024,17:00,18.358,P,ugm-3 (Ref.eq),130.64519,P,ugm-3,87.67039,P,ugm-3,287.99023,P,ugm-3
05-01-2024,18:00,23.189,P,ugm-3 (Ref.eq),112.19664,P,ugm-3,74.06925,P,ugm-3,246.10169,P,ugm-3
05-01-2024,19:00,19.324,P,ugm-3 (Ref.eq),67.70306,P,ugm-3,65.26081,P,ugm-3,169.07071,P,ugm-3
05-01-2024,20:00,19.324,P,ugm-3 (Ref.eq),57.86616,P,ugm-3,58.90277,P,ugm-3,147.62964,P,ugm-3
05-01-2024,21:00,13.527,P,ugm-3 (Ref.eq),57.79615,P,ugm-3,61.57259,P,ugm-3,150.19211,P,ugm-3
05-01-2024,22:00,15.459,P,ugm-3 (Ref.eq),62.90713,P,ugm-3,62.93983,P,ugm-3,159.39608,P,ugm-3
05-01-2024,23:00,11.594,P,ugm-3 (Ref.eq),28.32046,P,ugm-3,47.30825,P,ugm-3,90.73235,P,ugm-3
05-01-2024,24:00,4.831,P,ugm-3 (Ref.eq),3.39566,P,ugm-3,14.56103,P,ugm-3,19.76763,P,ugm-3
06-01-2024,01:00,3.865,P,ugm-3 (Ref.eq),2.47604,P,ugm-3,11.23740,P,ugm-3,15.03395,P,ugm-3
06-01-2024,02:00,5.797,P,ugm-3 (Ref.eq),2.47604,P,ugm-3,11.58703,P,ugm-3,15.38358,P,ugm-3
06-01-2024,03:00,6.763,P,ugm-3 (Ref.eq),4.27468,P,ugm-3,13.68897,P,ugm-3,20.24339,P,ugm-3
06-01-2024,04:00,6.763,P,ugm-3 (Ref.eq),4.48491,P,ugm-3,13.31418,P,ugm-3,20.19095,P,ugm-3
06-01-2024,05:00,4.831,P,ugm-3 (Ref.eq),4.41483,P,ugm-3,12.94963,P,ugm-3,19.71895,P,ugm-3
06-01-2024,06:00,4.831,P,ugm-3 (Ref.eq),4.51995,P,ugm-3,12.21158,P,ugm-3,19.14207,P,ugm-3
06-01-2024,07:00,5.797,P,ugm-3 (Ref.eq),5.22072,P,ugm-3,14.91305,P,ugm-3,22.91804,P,ugm-3
06-01-2024,08:00,7.730,P,ugm-3 (Ref.eq),7.00767,P,ugm-3,18.88592,P,ugm-3,29.63087,P,ugm-3
06-01-2024,09:00,6.763,P,ugm-3 (Ref.eq),5.29079,P,ugm-3,22.04287,P,ugm-3,30.15531,P,ugm-3
06-01-2024,10:00,9.662,P,ugm-3 (Ref.eq),6.86752,P,ugm-3,25.81366,P,ugm-3,36.34370,P,ugm-3
06-01-2024,11:00,10.628,P,ugm-3 (Ref.eq),24.73709,P,ugm-3,30.92933,P,ugm-3,68.85899,P,ugm-3
06-01-2024,12:00,7.730,P,ugm-3 (Ref.eq),19.27110,P,ugm-3,27.56293,P,ugm-3,57.11154,P,ugm-3
06-01-2024,13:00,5.797,P,ugm-3 (Ref.eq),13.94527,P,ugm-3,23.56208,P,ugm-3,44.94452,P,ugm-3
06-01-2024,14:00,2.899,P,ugm-3 (Ref.eq),10.65166,P,ugm-3,24.25935,P,ugm-3,40.59167,P,ugm-3
06-01-2024,15:00,1.932,P,ugm-3 (Ref.eq),14.96138,P,ugm-3,26.51424,P,ugm-3,49.45471,P,ugm-3
06-01-2024,16:00,5.797,P,ugm-3 (Ref.eq),47.23171,P,ugm-3,50.19316,P,ugm-3,122.61411,P,ugm-3
06-01-2024,17:00,13.527,P,ugm-3 (Ref.eq),27.71535,P,ugm-3,47.18300,P,ugm-3,89.67927,P,ugm-3
06-01-2024,18:00,13.527,P,ugm-3 (Ref.eq),46.70614,P,ugm-3,50.84170,P,ugm-3,122.45678,P,ugm-3
06-01-2024,19:00,9.662,P,ugm-3 (Ref.eq),36.58005,P,ugm-3,49.16651,P,ugm-3,105.25514,P,ugm-3
06-01-2024,20:00,19.324,P,ugm-3 (Ref.eq),11.91304,P,ugm-3,41.15266,P,ugm-3,59.41907,P,ugm-3
06-01-2024,21:00,19.324,P,ugm-3 (Ref.eq),18.14987,P,ugm-3,51.83305,P,ugm-3,79.66246,P,ugm-3
06-01-2024,22:00,11.594,P,ugm-3 (Ref.eq),7.84859,P,ugm-3,36.16171,P,ugm-3,48.19605,P,ugm-3
06-01-2024,23:00,14.493,P,ugm-3 (Ref.eq),45.79514,P,ugm-3,46.41726,P,ugm-3,116.63550,P,ugm-3
06-01-2024,24:00,7.730,P,ugm-3 (Ref.eq),21.58363,P,ugm-3,35.81700,P,ugm-3,68.91144,P,ugm-3
07-01-2024,01:00,10.628,P,ugm-3 (Ref.eq),27.68190,P,ugm-3,32.72756,P,ugm-3,75.17255,P,ugm-3
07-01-2024,02:00,8.696,P,ugm-3 (Ref.eq),19.28849,P,ugm-3,28.59780,P,ugm-3,57.92213,P,ugm-3
07-01-2024,03:00,5.797,P,ugm-3 (Ref.eq),6.41781,P,ugm-3,16.77143,P,ugm-3,26.61192,P,ugm-3
07-01-2024,04:00,6.763,P,ugm-3 (Ref.eq),11.18732,P,ugm-3,21.65978,P,ugm-3,38.81344,P,ugm-3
07-01-2024,05:00,9.662,P,ugm-3 (Ref.eq),4.97994,P,ugm-3,15.13686,P,ugm-3,22.77265,P,ugm-3
07-01-2024,06:00,6.763,P,ugm-3 (Ref.eq),5.50599,P,ugm-3,14.75100,P,ugm-3,23.19340,P,ugm-3
07-01-2024,07:00,5.797,P,ugm-3 (Ref.eq),11.46788,P,ugm-3,18.81033,P,ugm-3,36.39417,P,ugm-3
07-01-2024,08:00,5.797,P,ugm-3 (Ref.eq),16.44782,P,ugm-3,30.84422,P,ugm-3,56.06385,P,ugm-3
07-01-2024,09:00,8.696,P,ugm-3 (Ref.eq),19.74440,P,ugm-3,27.47250,P,ugm-3,57.74682,P,ugm-3
07-01-2024,10:00,8.696,P,ugm-3 (Ref.eq),25.84657,P,ugm-3,35.83972,P,ugm-3,75.47057,P,ugm-3
07-01-2024,11:00,6.763,P,ugm-3 (Ref.eq),44.32845,P,ugm-3,40.00354,P,ugm-3,107.97288,P,ugm-3
07-01-2024,12:00,8.696,P,ugm-3 (Ref.eq),24.37363,P,ugm-3,33.10188,P,ugm-3,70.47426,P,ugm-3
07-01-2024,13:00,5.797,P,ugm-3 (Ref.eq),9.15326,P,ugm-3,23.93715,P,ugm-3,37.97195,P,ugm-3
07-01-2024,14:00,5.797,P,ugm-3 (Ref.eq),19.21835,P,ugm-3,27.17465,P,ugm-3,56.64237,P,ugm-3
07-01-2024,15:00,7.730,P,ugm-3 (Ref.eq),26.86360,P,ugm-3,37.75141,P,ugm-3,78.94169,P,ugm-3
07-01-2024,16:00,6.763,P,ugm-3 (Ref.eq),20.23538,P,ugm-3,43.91750,P,ugm-3,74.94464,P,ugm-3
07-01-2024,17:00,15.459,P,ugm-3 (Ref.eq),8.06610,P,ugm-3,41.11897,P,ugm-3,53.48681,P,ugm-3
07-01-2024,18:00,6.763,P,ugm-3 (Ref.eq),7.85568,P,ugm-3,29.87121,P,ugm-3,41.91641,P,ugm-3
07-01-2024,19:00,6.763,P,ugm-3 (Ref.eq),5.71641,P,ugm-3,24.94691,P,ugm-3,33.71194,P,ugm-3
07-01-2024,20:00,8.696,P,ugm-3 (Ref.eq),4.87473,P,ugm-3,24.34413,P,ugm-3,31.81860,P,ugm-3
07-01-2024,21:00,9.662,P,ugm-3 (Ref.eq),4.41882,P,ugm-3,21.72984,P,ugm-3,28.50526,P,ugm-3
07-01-2024,22:00,16.425,P,ugm-3 (Ref.eq),44.64408,P,ugm-3,48.82850,P,ugm-3,117.28179,P,ugm-3
07-01-2024,23:00,15.459,P,ugm-3 (Ref.eq),19.95482,P,ugm-3,37.40545,P,ugm-3,68.00240,P,ugm-3
07-01-2024,24:00,14.493,P,ugm-3 (Ref.eq),38.89260,P,ugm-3,48.86432,P,ugm-3,108.49881,P,ugm-3
08-01-2024,01:00,7.730,P,ugm-3 (Ref.eq),20.17171,P,ugm-3,38.47822,P,ugm-3,69.40775,P,ugm-3
08-01-2024,02:00,7.730,P,ugm-3 (Ref.eq),7.72235,P,ugm-3,28.10209,P,ugm-3,39.94286,P,ugm-3
08-01-2024,03:00,4.831,P,ugm-3 (Ref.eq),2.17630,P,ugm-3,17.02125,P,ugm-3,20.35820,P,ugm-3
08-01-2024,04:00,1.932,P,ugm-3 (Ref.eq),4.56321,P,ugm-3,21.69453,P,ugm-3,28.69135,P,ugm-3
08-01-2024,05:00,3.865,P,ugm-3 (Ref.eq),14.07574,P,ugm-3,25.62110,P,ugm-3,47.20360,P,ugm-3
08-01-2024,06:00,3.865,P,ugm-3 (Ref.eq),28.60780,P,ugm-3,39.67778,P,ugm-3,83.54245,P,ugm-3
08-01-2024,07:00,6.763,P,ugm-3 (Ref.eq),60.37473,P,ugm-3,48.40459,P,ugm-3,140.97789,P,ugm-3
08-01-2024,08:00,11.594,P,ugm-3 (Ref.eq),88.42090,P,ugm-3,57.24591,P,ugm-3,192.82274,P,ugm-3
08-01-2024,09:00,11.594,P,ugm-3 (Ref.eq),128.57712,P,ugm-3,85.80904,P,ugm-3,282.95787,P,ugm-3
08-01-2024,10:00,9.662,P,ugm-3 (Ref.eq),82.06751,P,ugm-3,77.64141,P,ugm-3,203.47651,P,ugm-3
08-01-2024,11:00,8.696,P,ugm-3 (Ref.eq),45.38635,P,ugm-3,58.99221,P,ugm-3,128.58365,P,ugm-3
08-01-2024,12:00,6.763,P,ugm-3 (Ref.eq),45.80757,P,ugm-3,50.54062,P,ugm-3,120.77792,P,ugm-3
08-01-2024,13:00,20.290,P,ugm-3 (Ref.eq),50.33568,P,ugm-3,58.83990,P,ugm-3,136.02019,P,ugm-3
08-01-2024,14:00,22.223,P,ugm-3 (Ref.eq),59.63760,P,ugm-3,61.77086,P,ugm-3,153.21391,P,ugm-3
08-01-2024,15:00,26.087,P,ugm-3 (Ref.eq),67.11424,P,ugm-3,69.61022,P,ugm-3,172.51728,P,ugm-3
08-01-2024,16:00,31.885,P,ugm-3 (Ref.eq),69.57135,P,ugm-3,72.27715,P,ugm-3,178.95173,P,ugm-3
08-01-2024,17:00,17.392,P,ugm-3 (Ref.eq),46.82552,P,ugm-3,57.31294,P,ugm-3,129.11107,P,ugm-3
08-01-2024,18:00,22.223,P,ugm-3 (Ref.eq),58.97067,P,ugm-3,71.02114,P,ugm-3,161.44157,P,ugm-3
08-01-2024,19:00,24.155,P,ugm-3 (Ref.eq),26.57190,P,ugm-3,43.74878,P,ugm-3,84.49180,P,ugm-3
08-01-2024,20:00,20.290,P,ugm-3 (Ref.eq),18.60384,P,ugm-3,38.50889,P,ugm-3,67.03438,P,ugm-3
08-01-2024,21:00,10.628,P,ugm-3 (Ref.eq),13.37371,P,ugm-3,36.13825,P,ugm-3,56.64432,P,ugm-3
08-01-2024,22:00,22.223,P,ugm-3 (Ref.eq),11.44312,P,ugm-3,30.13240,P,ugm-3,47.67827,P,ugm-3
08-01-2024,23:00,12.561,P,ugm-3 (Ref.eq),9.93375,P,ugm-3,26.64517,P,ugm-3,41.87671,P,ugm-3
08-01-2024,24:00,11.594,P,ugm-3 (Ref.eq),9.72314,P,ugm-3,24.85845,P,ugm-3,39.76705,P,ugm-3
09-01-2024,01:00,11.594,P,ugm-3 (Ref.eq),2.24853,P,ugm-3,9.66907,P,ugm-3,13.11676,P,ugm-3
09-01-2024,02:00,12.561,P,ugm-3 (Ref.eq),2.01430,P,ugm-3,12.35537,P,ugm-3,15.44393,P,ugm-3
09-01-2024,03:00,11.594,P,ugm-3 (Ref.eq),1.33506,P,ugm-3,11.75727,P,ugm-3,13.80433,P,ugm-3
09-01-2024,04:00,6.763,P,ugm-3 (Ref.eq),1.47560,P,ugm-3,11.96491,P,ugm-3,14.22746,P,ugm-3
09-01-2024,05:00,9.662,P,ugm-3 (Ref.eq),1.72153,P,ugm-3,15.23724,P,ugm-3,17.87688,P,ugm-3
09-01-2024,06:00,7.730,P,ugm-3 (Ref.eq),3.89979,P,ugm-3,17.29209,P,ugm-3,23.27167,P,ugm-3
09-01-2024,07:00,19.324,P,ugm-3 (Ref.eq),17.35580,P,ugm-3,35.69275,P,ugm-3,62.30461,P,ugm-3
09-01-2024,08:00,19.324,P,ugm-3 (Ref.eq),38.26006,P,ugm-3,57.95821,P,ugm-3,116.62281,P,ugm-3
09-01-2024,09:00,21.256,P,ugm-3 (Ref.eq),49.18648,P,ugm-3,65.11094,P,ugm-3,140.52916,P,ugm-3
09-01-2024,10:00,21.256,P,ugm-3 (Ref.eq),36.88986,P,ugm-3,54.13545,P,ugm-3,110.69911,P,ugm-3
09-01-2024,11:00,26.087,P,ugm-3 (Ref.eq),38.36546,P,ugm-3,52.77203,P,ugm-3,111.59824,P,ugm-3
09-01-2024,12:00,14.493,P,ugm-3 (Ref.eq),28.70383,P,ugm-3,42.19905,P,ugm-3,86.21097,P,ugm-3
09-01-2024,13:00,26.087,P,ugm-3 (Ref.eq),39.45459,P,ugm-3,48.51044,P,ugm-3,109.00663,P,ugm-3
09-01-2024,14:00,17.392,P,ugm-3 (Ref.eq),31.19828,P,ugm-3,46.62513,P,ugm-3,94.46183,P,ugm-3
09-01-2024,15:00,18.358,P,ugm-3 (Ref.eq),44.72457,P,ugm-3,63.27847,P,ugm-3,131.85518,P,ugm-3
09-01-2024,16:00,15.459,P,ugm-3 (Ref.eq),42.79224,P,ugm-3,57.99046,P,ugm-3,123.60431,P,ugm-3
09-01-2024,17:00,14.493,P,ugm-3 (Ref.eq),41.77338,P,ugm-3,62.25009,P,ugm-3,126.30171,P,ugm-3
09-01-2024,18:00,15.459,P,ugm-3 (Ref.eq),30.28482,P,ugm-3,52.09830,P,ugm-3,98.53437,P,ugm-3
09-01-2024,19:00,11.594,P,ugm-3 (Ref.eq),22.73118,P,ugm-3,49.08270,P,ugm-3,83.93669,P,ugm-3
09-01-2024,20:00,10.628,P,ugm-3 (Ref.eq),8.81843,P,ugm-3,31.59390,P,ugm-3,45.11531,P,ugm-3
09-01-2024,21:00,6.763,P,ugm-3 (Ref.eq),5.69158,P,ugm-3,22.58401,P,ugm-3,31.31098,P,ugm-3
09-01-2024,22:00,3.865,P,ugm-3 (Ref.eq),2.24853,P,ugm-3,17.07369,P,ugm-3,20.52138,P,ugm-3
09-01-2024,23:00,0.966,P,ugm-3 (Ref.eq),3.02146,P,ugm-3,15.41254,P,ugm-3,20.04537,P,ugm-3
09-01-2024,24:00,0.966,P,ugm-3 (Ref.eq),1.79179,P,ugm-3,16.13441,P,ugm-3,18.88179,P,ugm-3
10-01-2024,01:00,4.831,P,ugm-3 (Ref.eq),1.82857,P,ugm-3,16.14879,P,ugm-3,18.95256,P,ugm-3
10-01-2024,02:00,4.831,P,ugm-3 (Ref.eq),1.26593,P,ugm-3,9.30317,P,ugm-3,11.24424,P,ugm-3
10-01-2024,03:00,2.899,P,ugm-3 (Ref.eq),0.45714,P,ugm-3,4.07256,P,ugm-3,4.77350,P,ugm-3
10-01-2024,04:00,3.865,P,ugm-3 (Ref.eq),0.35165,P,ugm-3,3.86304,P,ugm-3,4.40223,P,ugm-3
10-01-2024,05:00,4.831,P,ugm-3 (Ref.eq),0.52747,P,ugm-3,4.22992,P,ugm-3,5.03869,P,ugm-3
10-01-2024,06:00,-0.966,P,ugm-3 (Ref.eq),1.51209,P,ugm-3,6.59203,P,ugm-3,8.91053,P,ugm-3
10-01-2024,07:00,-2.899,P,ugm-3 (Ref.eq),2.21538,P,ugm-3,15.11370,P,ugm-3,18.51057,P,ugm-3
10-01-2024,08:00,2.899,P,ugm-3 (Ref.eq),9.45934,P,ugm-3,32.59441,P,ugm-3,47.09852,P,ugm-3
10-01-2024,09:00,5.797,P,ugm-3 (Ref.eq),13.22197,P,ugm-3,43.16109,P,ugm-3,63.43450,P,ugm-3
10-01-2024,10:00,0.966,P,ugm-3 (Ref.eq),6.11868,P,ugm-3,19.78954,P,ugm-3,29.17138,P,ugm-3
10-01-2024,11:00,0.966,P,ugm-3 (Ref.eq),2.63736,P,ugm-3,12.29208,P,ugm-3,16.33597,P,ugm-3
10-01-2024,12:00,2.899,P,ugm-3 (Ref.eq),2.77802,P,ugm-3,11.70513,P,ugm-3,15.96470,P,ugm-3
10-01-2024,13:00,2.899,P,ugm-3 (Ref.eq),3.16483,P,ugm-3,12.17280,P,ugm-3,17.02548,P,ugm-3
10-01-2024,14:00,1.932,P,ugm-3 (Ref.eq),6.04835,P,ugm-3,16.23770,P,ugm-3,25.51170,P,ugm-3
10-01-2024,15:00,5.797,P,ugm-3 (Ref.eq),3.51648,P,ugm-3,12.58832,P,ugm-3,17.98018,P,ugm-3
10-01-2024,16:00,10.628,P,ugm-3 (Ref.eq),6.57582,P,ugm-3,18.61125,P,ugm-3,28.69403,P,ugm-3
10-01-2024,17:00,8.696,P,ugm-3 (Ref.eq),10.16263,P,ugm-3,25.36353,P,ugm-3,40.94602,P,ugm-3
10-01-2024,18:00,5.797,P,ugm-3 (Ref.eq),4.92307,P,ugm-3,16.26585,P,ugm-3,23.81446,P,ugm-3
10-01-2024,19:00,12.561,P,ugm-3 (Ref.eq),3.72747,P,ugm-3,16.93223,P,ugm-3,22.64760,P,ugm-3
10-01-2024,20:00,11.594,P,ugm-3 (Ref.eq),3.62198,P,ugm-3,16.88183,P,ugm-3,22.43545,P,ugm-3
10-01-2024,21:00,15.459,P,ugm-3 (Ref.eq),2.63736,P,ugm-3,14.78490,P,ugm-3,18.82880,P,ugm-3
10-01-2024,22:00,15.459,P,ugm-3 (Ref.eq),1.58242,P,ugm-3,7.59801,P,ugm-3,10.02435,P,ugm-3
10-01-2024,23:00,11.594,P,ugm-3 (Ref.eq),1.37143,P,ugm-3,6.38339,P,ugm-3,8.48622,P,ugm-3
10-01-2024,24:00,14.493,P,ugm-3 (Ref.eq),1.44176,P,ugm-3,5.37390,P,ugm-3,7.58456,P,ugm-3
11-01-2024,01:00,16.425,P,ugm-3 (Ref.eq),0.51621,P,ugm-3,3.39257,P,ugm-3,4.18409,P,ugm-3
11-01-2024,02:00,10.628,P,ugm-3 (Ref.eq),0.32850,P,ugm-3,2.12023,P,ugm-3,2.62392,P,ugm-3
11-01-2024,03:00,15.459,P,ugm-3 (Ref.eq),0.21118,P,ugm-3,2.44195,P,ugm-3,2.76575,P,ugm-3
11-01-2024,04:00,12.561,P,ugm-3 (Ref.eq),0.49275,P,ugm-3,2.54209,P,ugm-3,3.29763,P,ugm-3
11-01-2024,05:00,15.459,P,ugm-3 (Ref.eq),0.52795,P,ugm-3,2.70088,P,ugm-3,3.51038,P,ugm-3
11-01-2024,06:00,5.797,P,ugm-3 (Ref.eq),0.73913,P,ugm-3,3.65358,P,ugm-3,4.78688,P,ugm-3
11-01-2024,07:00,3.865,P,ugm-3 (Ref.eq),1.40786,P,ugm-3,6.40452,P,ugm-3,8.56320,P,ugm-3
11-01-2024,08:00,5.797,P,ugm-3 (Ref.eq),1.97100,P,ugm-3,11.39168,P,ugm-3,14.41384,P,ugm-3
11-01-2024,09:00,11.594,P,ugm-3 (Ref.eq),2.67493,P,ugm-3,16.69485,P,ugm-3,20.79635,P,ugm-3
11-01-2024,10:00,9.662,P,ugm-3 (Ref.eq),2.00620,P,ugm-3,19.04991,P,ugm-3,22.12604,P,ugm-3
11-01-2024,11:00,9.662,P,ugm-3 (Ref.eq),1.37266,P,ugm-3,10.34118,P,ugm-3,12.44590,P,ugm-3
11-01-2024,12:00,8.696,P,ugm-3 (Ref.eq),1.47825,P,ugm-3,9.59422,P,ugm-3,11.86083,P,ugm-3
11-01-2024,13:00,15.459,P,ugm-3 (Ref.eq),1.61904,P,ugm-3,9.27197,P,ugm-3,11.75446,P,ugm-3
11-01-2024,14:00,11.594,P,ugm-3 (Ref.eq),2.42855,P,ugm-3,12.33892,P,ugm-3,16.06265,P,ugm-3
11-01-2024,15:00,17.392,P,ugm-3 (Ref.eq),2.39336,P,ugm-3,10.21220,P,ugm-3,13.88196,P,ugm-3
11-01-2024,16:00,7.730,P,ugm-3 (Ref.eq),1.90061,P,ugm-3,14.42493,P,ugm-3,17.33916,P,ugm-3
11-01-2024,17:00,5.797,P,ugm-3 (Ref.eq),4.22357,P,ugm-3,17.83068,P,ugm-3,24.30673,P,ugm-3
11-01-2024,18:00,4.831,P,ugm-3 (Ref.eq),2.71013,P,ugm-3,17.17276,P,ugm-3,21.32823,P,ugm-3
11-01-2024,19:00,4.831,P,ugm-3 (Ref.eq),1.79502,P,ugm-3,13.41671,P,ugm-3,16.16903,P,ugm-3